DLH556 LEBB-EGJJ

Flight info

Callsign DLH556
Flight time 0h 51m
Altitude 20000
Route BISKA P87 BELEN/N0459F400 DCT LERAK
Aircraft B736/M-SDE2E3FGHIRWXY/LB1

Departure

Time 2026-05-05 19:01
Airport Bilbao Airport (LEBB)

Arrival

Time 2026-05-05 19:53
Airport Jersey Airport (EGJJ)
Time Latitude Longitude Altitude Speed Heading
2026-05-05 18:51 43.30428 -2.90632 123 ft 0 kts 27°
2026-05-05 18:55 43.30418 -2.90639 121 ft 4 kts 29°
2026-05-05 18:55 43.30395 -2.90658 125 ft 4 kts 39°
2026-05-05 18:55 43.30377 -2.90685 124 ft 4 kts 67°
2026-05-05 18:56 43.30375 -2.90711 123 ft 1 kts 116°
2026-05-05 18:56 43.30377 -2.90717 123 ft 0 kts 116°
2026-05-05 18:59 43.30376 -2.90715 123 ft 2 kts 116°
2026-05-05 18:59 43.30352 -2.90648 126 ft 13 kts 119°
2026-05-05 18:59 43.30261 -2.90543 123 ft 21 kts 151°
2026-05-05 19:00 43.30143 -2.90586 122 ft 20 kts 210°
2026-05-05 19:00 43.30081 -2.90767 123 ft 27 kts 279°
2026-05-05 19:00 43.30100 -2.90986 126 ft 22 kts 278°
2026-05-05 19:00 43.30121 -2.91191 126 ft 6 kts 276°
2026-05-05 19:01 43.30121 -2.91196 126 ft 4 kts 276°
2026-05-05 19:01 43.30160 -2.91661 125 ft 92 kts 276°
2026-05-05 19:01 43.30260 -2.92876 212 ft 154 kts 276°
2026-05-05 19:01 43.30389 -2.94447 817 ft 176 kts 276°
2026-05-05 19:02 43.30547 -2.96256 1384 ft 205 kts 278°
2026-05-05 19:02 43.30775 -2.98233 2164 ft 218 kts 279°
2026-05-05 19:02 43.31018 -3.00327 2964 ft 228 kts 279°
2026-05-05 19:02 43.31274 -3.02566 3770 ft 242 kts 280°
2026-05-05 19:03 43.31534 -3.04878 4845 ft 247 kts 280°
2026-05-05 19:03 43.31794 -3.07230 5893 ft 252 kts 280°
2026-05-05 19:03 43.32057 -3.09628 6899 ft 257 kts 280°
2026-05-05 19:03 43.32336 -3.12075 7874 ft 261 kts 284°
2026-05-05 19:04 43.33179 -3.14276 8735 ft 268 kts 317°
2026-05-05 19:04 43.34839 -3.15381 9769 ft 272 kts 351°
2026-05-05 19:04 43.36737 -3.15022 10547 ft 289 kts 21°
2026-05-05 19:04 43.38457 -3.13321 10812 ft 323 kts 42°
2026-05-05 19:05 43.40161 -3.11197 11312 ft 337 kts 34°
2026-05-05 19:05 43.43526 -3.06894 12966 ft 349 kts 50°
2026-05-05 19:05 43.45991 -3.00868 14520 ft 366 kts 67°
2026-05-05 19:05 43.47129 -2.93979 16122 ft 376 kts 84°
2026-05-05 19:06 43.47999 -2.87009 17567 ft 378 kts 56°
2026-05-05 19:06 43.52112 -2.83296 19354 ft 356 kts
2026-05-05 19:06 43.57080 -2.83787 20070 ft 370 kts 356°
2026-05-05 19:06 43.62226 -2.83162 19999 ft 367 kts
2026-05-05 19:07 43.67108 -2.81773 19982 ft 352 kts
2026-05-05 19:07 43.71855 -2.80288 19986 ft 350 kts 10°
2026-05-05 19:07 43.76641 -2.78721 20010 ft 357 kts 10°
2026-05-05 19:07 43.81499 -2.77133 20004 ft 360 kts 11°
2026-05-05 19:08 43.86391 -2.75537 19989 ft 361 kts 11°
2026-05-05 19:08 43.91273 -2.73974 19982 ft 360 kts
2026-05-05 19:08 43.96241 -2.73451 19984 ft 357 kts 359°
2026-05-05 19:08 44.01202 -2.73233 19983 ft 356 kts
2026-05-05 19:09 44.06151 -2.72994 19979 ft 356 kts
2026-05-05 19:09 44.11094 -2.72725 19971 ft 355 kts
2026-05-05 19:09 44.16018 -2.72441 19978 ft 354 kts
2026-05-05 19:09 44.20927 -2.72152 19980 ft 353 kts
2026-05-05 19:10 44.25840 -2.71859 19977 ft 352 kts
2026-05-05 19:10 44.30738 -2.71567 19960 ft 352 kts
2026-05-05 19:10 44.35620 -2.71275 19964 ft 351 kts
2026-05-05 19:10 44.40504 -2.70983 19971 ft 350 kts
2026-05-05 19:11 44.45368 -2.70692 19957 ft 350 kts
2026-05-05 19:11 44.50236 -2.70399 19968 ft 349 kts
2026-05-05 19:11 44.55084 -2.70107 19961 ft 349 kts
2026-05-05 19:11 44.59930 -2.69815 19958 ft 349 kts
2026-05-05 19:12 44.64784 -2.69522 19965 ft 348 kts
2026-05-05 19:12 44.69622 -2.69230 19954 ft 347 kts
2026-05-05 19:12 44.74446 -2.68937 19948 ft 347 kts
2026-05-05 19:12 44.79274 -2.68645 19956 ft 347 kts
2026-05-05 19:13 44.84042 -2.68355 19954 ft 347 kts
2026-05-05 19:13 44.88873 -2.68061 19949 ft 347 kts
2026-05-05 19:13 44.93761 -2.67763 19951 ft 348 kts
2026-05-05 19:13 44.98603 -2.67467 19953 ft 348 kts
2026-05-05 19:14 45.03435 -2.67171 19959 ft 348 kts
2026-05-05 19:14 45.08290 -2.66874 19944 ft 349 kts
2026-05-05 19:14 45.13066 -2.66581 19945 ft 349 kts
2026-05-05 19:14 45.17916 -2.66283 19953 ft 349 kts
2026-05-05 19:15 45.22774 -2.65984 19951 ft 349 kts
2026-05-05 19:15 45.27629 -2.65684 19944 ft 349 kts
2026-05-05 19:15 45.32489 -2.65384 19949 ft 349 kts
2026-05-05 19:15 45.37352 -2.65083 19931 ft 350 kts
2026-05-05 19:16 45.42209 -2.64781 19934 ft 350 kts
2026-05-05 19:16 45.47069 -2.64479 19943 ft 349 kts
2026-05-05 19:16 45.51925 -2.64177 19940 ft 349 kts
2026-05-05 19:16 45.56784 -2.63874 19934 ft 349 kts
2026-05-05 19:17 45.61642 -2.63571 19940 ft 349 kts
2026-05-05 19:17 45.66496 -2.63267 19937 ft 349 kts
2026-05-05 19:17 45.71357 -2.62963 19922 ft 350 kts
2026-05-05 19:17 45.76217 -2.62658 19920 ft 350 kts
2026-05-05 19:18 45.81070 -2.62353 19932 ft 349 kts
2026-05-05 19:18 45.85939 -2.62046 19931 ft 350 kts
2026-05-05 19:18 45.90801 -2.61739 19929 ft 351 kts
2026-05-05 19:18 45.95676 -2.61431 19931 ft 351 kts
2026-05-05 19:19 46.00562 -2.61121 19924 ft 351 kts
2026-05-05 19:19 46.05449 -2.60811 19922 ft 352 kts
2026-05-05 19:19 46.10333 -2.60501 19929 ft 352 kts
2026-05-05 19:19 46.15228 -2.60190 19919 ft 352 kts
2026-05-05 19:20 46.20124 -2.59877 19916 ft 352 kts
2026-05-05 19:20 46.25023 -2.59564 19924 ft 352 kts
2026-05-05 19:20 46.29918 -2.59250 19932 ft 352 kts
2026-05-05 19:20 46.34791 -2.58938 19916 ft 353 kts
2026-05-05 19:21 46.38040 -2.58729 19923 ft 353 kts
2026-05-05 19:21 46.42945 -2.58414 19923 ft 353 kts
2026-05-05 19:21 46.47848 -2.58098 19919 ft 353 kts
2026-05-05 19:21 46.52744 -2.57782 19922 ft 352 kts
2026-05-05 19:22 46.57646 -2.57465 19925 ft 351 kts
2026-05-05 19:22 46.62448 -2.57155 19914 ft 346 kts
2026-05-05 19:22 46.67275 -2.56841 19913 ft 348 kts
2026-05-05 19:22 46.72117 -2.56526 19926 ft 348 kts
2026-05-05 19:23 46.76958 -2.56211 19923 ft 349 kts
2026-05-05 19:23 46.81807 -2.55894 19922 ft 350 kts
2026-05-05 19:23 46.86673 -2.55576 19924 ft 350 kts
2026-05-05 19:23 46.91540 -2.55258 19922 ft 350 kts
2026-05-05 19:24 46.96400 -2.54939 19910 ft 350 kts
2026-05-05 19:24 47.01260 -2.54620 19919 ft 349 kts
2026-05-05 19:24 47.06115 -2.54300 19925 ft 349 kts
2026-05-05 19:24 47.10957 -2.53981 19917 ft 349 kts
2026-05-05 19:25 47.15792 -2.53661 19923 ft 348 kts
2026-05-05 19:25 47.20639 -2.53340 19929 ft 348 kts
2026-05-05 19:25 47.25492 -2.53018 19919 ft 349 kts
2026-05-05 19:25 47.30348 -2.52695 19914 ft 350 kts
2026-05-05 19:26 47.35209 -2.52372 19928 ft 350 kts
2026-05-05 19:26 47.40075 -2.52048 19922 ft 350 kts
2026-05-05 19:26 47.44946 -2.51722 19925 ft 351 kts
2026-05-05 19:26 47.49821 -2.51396 19938 ft 351 kts
2026-05-05 19:27 47.54706 -2.51069 19939 ft 351 kts
2026-05-05 19:27 47.59598 -2.50740 19937 ft 352 kts
2026-05-05 19:27 47.64424 -2.50415 19938 ft 353 kts
2026-05-05 19:27 47.69327 -2.50085 19939 ft 353 kts
2026-05-05 19:28 47.74236 -2.49753 19937 ft 353 kts
2026-05-05 19:28 47.79147 -2.49421 19933 ft 353 kts
2026-05-05 19:28 47.84045 -2.49089 19937 ft 352 kts
2026-05-05 19:28 47.88942 -2.48756 19935 ft 352 kts
2026-05-05 19:29 47.93829 -2.48423 19935 ft 351 kts
2026-05-05 19:29 47.98704 -2.48091 19930 ft 351 kts
2026-05-05 19:29 48.03588 -2.47757 19935 ft 350 kts
2026-05-05 19:29 48.08450 -2.47424 19944 ft 350 kts
2026-05-05 19:30 48.13321 -2.47090 19946 ft 350 kts
2026-05-05 19:30 48.18190 -2.46755 19951 ft 350 kts
2026-05-05 19:30 48.23059 -2.46420 19942 ft 350 kts
2026-05-05 19:30 48.27936 -2.46083 19958 ft 350 kts
2026-05-05 19:31 48.32804 -2.45747 19951 ft 351 kts
2026-05-05 19:31 48.37681 -2.45409 19947 ft 351 kts
2026-05-05 19:31 48.41975 -2.45111 19943 ft 351 kts
2026-05-05 19:31 48.44419 -2.44941 19945 ft 350 kts
2026-05-05 19:32 48.46822 -2.44775 19837 ft 343 kts
2026-05-05 19:32 48.49189 -2.44611 19575 ft 339 kts
2026-05-05 19:32 48.51539 -2.44447 19169 ft 337 kts
2026-05-05 19:32 48.53872 -2.44285 18774 ft 333 kts
2026-05-05 19:33 48.56180 -2.44124 18385 ft 331 kts
2026-05-05 19:33 48.58471 -2.43963 17948 ft 328 kts
2026-05-05 19:33 48.60745 -2.43804 17504 ft 326 kts
2026-05-05 19:33 48.62973 -2.43648 17081 ft 323 kts
2026-05-05 19:34 48.65206 -2.43492 16706 ft 319 kts
2026-05-05 19:34 48.67414 -2.43337 16294 ft 317 kts
2026-05-05 19:34 48.69610 -2.43183 15896 ft 314 kts
2026-05-05 19:35 48.73948 -2.42878 15118 ft 310 kts
2026-05-05 19:35 48.76094 -2.42727 14734 ft 307 kts
2026-05-05 19:35 48.78227 -2.42576 14354 ft 305 kts
2026-05-05 19:35 48.80342 -2.42427 13974 ft 303 kts
2026-05-05 19:36 48.82445 -2.42279 13574 ft 301 kts
2026-05-05 19:36 48.84532 -2.42132 13163 ft 299 kts
2026-05-05 19:36 48.86580 -2.41987 12769 ft 297 kts
2026-05-05 19:36 48.88633 -2.41842 12395 ft 294 kts
2026-05-05 19:37 48.90670 -2.41697 12016 ft 292 kts
2026-05-05 19:37 48.92690 -2.41554 11648 ft 290 kts
2026-05-05 19:37 48.94695 -2.41412 11281 ft 287 kts
2026-05-05 19:37 48.96688 -2.41271 10916 ft 286 kts
2026-05-05 19:38 48.98666 -2.41130 10557 ft 284 kts
2026-05-05 19:38 49.00633 -2.41068 10263 ft 280 kts 354°
2026-05-05 19:38 49.02447 -2.41964 10148 ft 272 kts 333°
2026-05-05 19:38 49.03950 -2.43632 10029 ft 264 kts 320°
2026-05-05 19:39 49.05274 -2.45527 9829 ft 259 kts 319°
2026-05-05 19:39 49.06575 -2.47423 9501 ft 258 kts 319°
2026-05-05 19:39 49.07983 -2.49080 9182 ft 254 kts 338°
2026-05-05 19:39 49.09676 -2.49530 8933 ft 247 kts
2026-05-05 19:40 49.11227 -2.48602 8796 ft 240 kts 37°
2026-05-05 19:40 49.12256 -2.46562 8533 ft 252 kts 66°
2026-05-05 19:40 49.12499 -2.43865 8306 ft 265 kts 91°
2026-05-05 19:40 49.12269 -2.41034 8069 ft 272 kts 95°
2026-05-05 19:41 49.11976 -2.38157 7820 ft 277 kts 96°
2026-05-05 19:41 49.11668 -2.35237 7572 ft 281 kts 96°
2026-05-05 19:41 49.11352 -2.32281 7321 ft 283 kts 96°
2026-05-05 19:41 49.11033 -2.29355 7060 ft 277 kts 96°
2026-05-05 19:42 49.10715 -2.26480 6798 ft 272 kts 96°
2026-05-05 19:42 49.10411 -2.23612 6334 ft 275 kts 93°
2026-05-05 19:42 49.10242 -2.20735 5840 ft 271 kts 91°
2026-05-05 19:42 49.10109 -2.17884 5357 ft 268 kts 90°
2026-05-05 19:43 49.09983 -2.15069 4871 ft 265 kts 90°
2026-05-05 19:43 49.09854 -2.12279 4419 ft 261 kts 90°
2026-05-05 19:43 49.09789 -2.09577 4098 ft 250 kts 85°
2026-05-05 19:43 49.09850 -2.06965 3788 ft 243 kts 84°
2026-05-05 19:44 49.09921 -2.04427 3477 ft 236 kts 83°
2026-05-05 19:44 49.09988 -2.01999 3246 ft 228 kts 83°
2026-05-05 19:44 49.10052 -1.99593 3002 ft 227 kts 83°
2026-05-05 19:44 49.10120 -1.97150 2782 ft 228 kts 83°
2026-05-05 19:45 49.10197 -1.94722 2552 ft 230 kts 80°
2026-05-05 19:45 49.10714 -1.92521 2369 ft 221 kts 50°
2026-05-05 19:45 49.11922 -1.91182 2242 ft 216 kts 17°
2026-05-05 19:45 49.13406 -1.90850 2147 ft 218 kts
2026-05-05 19:46 49.14933 -1.90836 2013 ft 221 kts 356°
2026-05-05 19:46 49.16397 -1.91500 1945 ft 223 kts 332°
2026-05-05 19:46 49.17681 -1.92838 1945 ft 224 kts 326°
2026-05-05 19:46 49.18793 -1.94526 1937 ft 228 kts 308°
2026-05-05 19:47 49.19577 -1.96613 1943 ft 223 kts 301°
2026-05-05 19:47 49.20217 -1.98704 1929 ft 215 kts 289°
2026-05-05 19:47 49.20180 -2.00967 1936 ft 219 kts 252°
2026-05-05 19:47 49.19276 -2.02854 1935 ft 228 kts 217°
2026-05-05 19:48 49.17787 -2.03716 1956 ft 232 kts 182°
2026-05-05 19:48 49.16248 -2.03229 1937 ft 226 kts 147°
2026-05-05 19:48 49.15183 -2.01585 1927 ft 216 kts 111°
2026-05-05 19:48 49.14941 -1.99414 1945 ft 205 kts 76°
2026-05-05 19:49 49.15571 -1.97545 1938 ft 198 kts 40°
2026-05-05 19:49 49.16342 -1.96838 1948 ft 196 kts 16°
2026-05-05 19:49 49.18163 -1.96828 1945 ft 200 kts 352°
2026-05-05 19:49 49.19455 -1.97576 1935 ft 196 kts 332°
2026-05-05 19:50 49.20393 -1.99019 1945 ft 190 kts 304°
2026-05-05 19:50 49.21011 -2.00726 1925 ft 177 kts 303°
2026-05-05 19:50 49.21581 -2.02320 1927 ft 169 kts 303°
2026-05-05 19:50 49.22031 -2.03972 1928 ft 173 kts 279°
2026-05-05 19:51 49.21919 -2.05811 1942 ft 175 kts 268°
2026-05-05 19:51 49.21786 -2.07671 1720 ft 174 kts 268°
2026-05-05 19:51 49.21639 -2.09455 1476 ft 163 kts 266°
2026-05-05 19:51 49.21498 -2.11126 1267 ft 157 kts 267°
2026-05-05 19:52 49.21361 -2.12773 1052 ft 156 kts 267°
2026-05-05 19:52 49.21226 -2.14381 856 ft 153 kts 267°
2026-05-05 19:52 49.21098 -2.15918 669 ft 140 kts 265°
2026-05-05 19:52 49.20976 -2.17384 455 ft 134 kts 265°
2026-05-05 19:53 49.20864 -2.18745 294 ft 123 kts 263°
2026-05-05 19:53 49.20771 -2.19855 282 ft 71 kts 263°
2026-05-05 19:53 49.20728 -2.20380 280 ft 27 kts 263°
2026-05-05 19:53 49.20702 -2.20638 279 ft 21 kts 254°
2026-05-05 19:54 49.20633 -2.20655 280 ft 7 kts 106°
2026-05-05 19:54 49.20626 -2.20582 280 ft 7 kts 97°
2026-05-05 19:54 49.20616 -2.20498 282 ft 10 kts 106°
2026-05-05 19:54 49.20591 -2.20373 279 ft 13 kts 107°
2026-05-05 19:55 49.20566 -2.20238 281 ft 13 kts 105°
2026-05-05 19:55 49.20537 -2.20091 279 ft 16 kts 107°
2026-05-05 19:55 49.20522 -2.19952 279 ft 13 kts 63°
2026-05-05 19:55 49.20600 -2.19904 281 ft 13 kts 61°
2026-05-05 19:56 49.20612 -2.19774 279 ft 13 kts 82°
2026-05-05 19:56 49.20614 -2.19674 299 ft 4 kts 125°
2026-05-05 19:56 49.20604 -2.19665 283 ft 3 kts 151°
2026-05-05 19:56 49.20581 -2.19649 279 ft 5 kts 160°
2026-05-05 19:57 49.20566 -2.19642 279 ft 1 kts 161°
2026-05-05 19:57 49.20563 -2.19640 279 ft 0 kts 159°